Location: Cahoon Acres
(40.8736°N, 111.8994°W)
Time: 05:43:49
(UTC+00:00)

Transit 2A - All Passes

Search period start: 06 June 2020 00:00
Search period end: 16 June 2020 00:00
Orbit: 593 x 966 km, 66.7° (Epoch: 05 June)

Date Brightness Start Highest point End Pass type
(mag) Time Alt. Az. Time Alt. Az. Time Alt. Az.
06 Jun - 02:17:26 10° N 02:21:14 16° NE 02:25:05 10° ENE daylight
06 Jun - 03:59:18 10° NNW 04:05:35 70° ENE 04:11:56 10° SE visible
06 Jun - 05:43:45 10° WNW 05:48:18 21° WSW 05:52:52 10° SSW visible
06 Jun - 18:39:12 10° S 18:43:58 56° ESE 18:49:19 10° NE daylight
06 Jun - 20:23:32 10° W 20:27:38 23° NW 20:32:05 10° N daylight
07 Jun - 01:43:59 10° N 01:46:38 13° NE 01:49:20 10° ENE daylight
07 Jun - 03:25:14 10° NNW 03:31:21 51° NE 03:37:32 10° SE visible
07 Jun - 05:08:59 10° NW 05:14:22 30° WSW 05:19:45 10° SSW visible
07 Jun - 18:05:29 10° S 18:09:58 37° ESE 18:14:56 10° NE daylight
07 Jun - 19:48:42 10° WSW 19:53:13 31° NW 19:58:13 10° NNE daylight
08 Jun - 02:51:15 10° NNW 02:57:04 38° NE 03:02:57 10° ESE daylight
08 Jun - 04:34:29 10° NW 04:40:23 42° WSW 04:46:17 10° S visible
08 Jun - 17:32:05 10° SSE 17:36:02 25° ESE 17:40:21 10° NE daylight
08 Jun - 19:14:06 10° SW 19:18:54 44° NW 19:24:14 10° NNE daylight
09 Jun - 02:17:19 10° NNW 02:22:42 29° NE 02:28:09 10° ESE daylight
09 Jun - 04:00:08 10° NW 04:06:20 59° WSW 04:12:33 10° SSE visible
09 Jun - 16:59:07 10° SE 17:02:11 16° ESE 17:05:25 10° ENE daylight
09 Jun - 18:39:41 10° SW 18:44:38 63° WNW 18:50:12 10° NNE daylight
09 Jun - 20:26:43 10° WNW 20:29:10 13° NW 20:31:43 10° N daylight
10 Jun - 01:43:28 10° N 01:48:16 22° NE 01:53:08 10° E daylight
10 Jun - 03:25:54 10° NNW 03:32:14 82° WSW 03:38:36 10° SSE visible
10 Jun - 05:11:49 10° WNW 05:14:35 13° W 05:17:20 10° SW visible
10 Jun - 16:27:39 10° ESE 16:28:22 10° E 16:29:05 10° E daylight
10 Jun - 18:05:29 10° SSW 18:10:28 90° ESE 18:16:04 10° NNE daylight
10 Jun - 19:51:12 10° W 19:54:36 17° NW 19:58:14 10° N daylight
11 Jun - 01:09:45 10° N 01:13:46 17° NE 01:17:51 10° E daylight
11 Jun - 02:51:45 10° NNW 02:58:04 74° ENE 03:04:26 10° SE daylight
11 Jun - 04:36:23 10° WNW 04:40:43 20° WSW 04:45:02 10° SSW visible
11 Jun - 17:31:30 10° SSW 17:36:21 61° ESE 17:41:50 10° NE daylight
11 Jun - 19:16:03 10° W 19:20:07 22° NW 19:24:30 10° N daylight
12 Jun - 00:36:13 10° N 00:39:12 14° NE 00:42:13 10° ENE daylight
12 Jun - 02:17:39 10° NNW 02:23:51 55° NE 02:30:05 10° SE daylight
12 Jun - 04:01:33 10° NW 04:06:48 28° WSW 04:12:01 10° SSW visible
12 Jun - 16:57:43 10° S 17:02:21 41° ESE 17:07:29 10° NE daylight
12 Jun - 18:41:11 10° WSW 18:45:41 30° NW 18:50:39 10° NNE daylight
13 Jun - 00:03:22 10° NNE 00:04:34 11° NNE 00:05:46 10° NE daylight
13 Jun - 01:43:39 10° NNW 01:49:34 41° NE 01:55:32 10° ESE daylight
13 Jun - 03:27:00 10° NW 03:32:50 39° WSW 03:38:37 10° S visible
13 Jun - 16:24:14 10° SSE 16:28:24 27° ESE 16:32:57 10° NE daylight
13 Jun - 18:06:32 10° WSW 18:11:20 41° NW 18:16:42 10° NNE daylight
14 Jun - 01:09:42 10° NNW 01:15:13 31° NE 01:20:47 10° ESE daylight
14 Jun - 02:52:37 10° NW 02:58:48 55° WSW 03:04:57 10° S daylight
14 Jun - 15:51:09 10° SE 15:54:32 18° ESE 15:58:08 10° ENE daylight
14 Jun - 17:32:05 10° SW 17:37:04 58° WNW 17:42:40 10° NNE daylight
14 Jun - 19:19:23 10° WNW 19:21:41 13° NNW 19:24:06 10° N daylight
15 Jun - 00:35:50 10° N 00:40:48 24° NE 00:45:49 10° E daylight
15 Jun - 02:18:21 10° NNW 02:24:43 77° WSW 02:31:02 10° SSE daylight
15 Jun - 04:04:45 10° W 04:06:58 12° W 04:09:11 10° WSW visible
15 Jun - 15:18:56 10° ESE 15:20:42 12° E 15:22:31 10° E daylight
15 Jun - 16:57:50 10° SSW 17:02:52 84° WNW 17:08:33 10° NNE daylight
15 Jun - 18:43:46 10° WNW 18:47:07 16° NW 18:50:39 10° N daylight
